Flag Weather past 2 weeks in Pirassununga, São Paulo, Brazil

Now
72 °F

Partly sunny.


Feels Like: 67 °F
Forecast: 70 / 80 °F
Wind: 2 mph from Southeast

Location: Pirassununga Airport

Current Time: Nov 27, 2014 at 10:01:44 AM

Latest Report: Nov 27, 2014 at 9:00 AM


Visibility: N/A

Pressure: 29.95 "Hg

Humidity: 94%

Dew point: 70 °F

Location of PirassunungaLocation

Historic Weather in Pirassununga — Graph

°F

Pirassununga temperature yesterday

Maximum temperature yesterday: 81 °F (at 3:00 PM)
Minimum temperature yesterday: 70 °F (at 6:00 AM)
Average temperature yesterday: 73 °F

Past Weeks' High & Low Weather Summary

 TemperatureHumidityPressure
High93 °F (Nov 21, 4:00 PM)100% (Nov 25, 6:00 AM)30.09 "Hg (Nov 25, 6:00 AM)
Low55 °F (Nov 17, 6:00 AM)27% (Nov 16, 3:00 PM)29.74 "Hg (Nov 13, 4:00 PM)
Average77 °F62%29.94 "Hg
* Reported Nov 12 9:00 AM — Nov 27 9:00 AM, Pirassununga, Weather by CustomWeather, © 2014

Note: Actual official high and low records may vary slightly from our data, if they occured in-between our weather recording intervals... More about our weather records

Advertising

Pirassununga weather history for previous 24 hours

 ConditionsComfort  
Time TempWeatherWind HumidityBarometerVisibility
9:00 AM
Nov 27
72 °FPartly sunny.2 mph94%29.95 "HgN/A
8:00 AM70 °FPartly sunny.3 mph100%29.95 "HgN/A
7:00 AM70 °FCloudy.3 mph100%29.92 "HgN/A
6:00 AM70 °FPartly cloudy.2 mph100%29.92 "HgN/A
11:00 PM
Nov 26
70 °FLight rain. Mostly cloudy.6 mph100%29.92 "HgN/A
10:00 PM70 °FLight rain. Partly cloudy.6 mph100%29.89 "HgN/A
9:00 PM70 °FLight rain. Partly cloudy.6 mph100%29.89 "Hg3 mi
8:00 PM70 °FPartly cloudy.5 mph100%29.86 "HgN/A
7:00 PM73 °FPartly sunny.5 mph89%29.83 "HgN/A
6:00 PM73 °FPartly sunny.9 mph89%29.83 "HgN/A
5:00 PM75 °FBroken clouds.6 mph89%29.80 "HgN/A
4:00 PM81 °FScattered clouds.14 mph70%29.80 "HgN/A
3:00 PM81 °FScattered clouds.12 mph70%29.83 "HgN/A
2:00 PM77 °FBroken clouds.14 mph79%29.86 "HgN/A
1:00 PM75 °FPartly sunny.14 mph78%29.89 "HgN/A
12:00 PM73 °FFog.9 mph89%29.89 "Hg3 mi
11:00 AM70 °FLight rain. Fog.13 mph94%29.89 "Hg1 mi
10:00 AM72 °FBroken clouds.12 mph88%29.89 "Hg4 mi
Weather by CustomWeather, © 2014

See weather overviewHow to use our weather pages